SNOOPI

Last updated on Fri Sep 27 2024 00:02:07 GMT+0000 (Coordinated Universal Time)

1 59563U 98067WN 24269.79580319 .02239490 64862-2 16132-2 0 9995 2 59563 51.6152 156.6182 0007784 233.6043 126.4257 16.16734086 25169

Satellite not in orbit